Weather History for Washington, NC

Change the Weather History Date:

Friday, May 9, 2014

  Actual Average (KEWN) Record (KEWN)
Temperature  
Mean Temperature 80 °F 68 °F  
Max Temperature 93 °F 79 °F 93 °F (1963)
Min Temperature 68 °F 57 °F 41 °F (1950)
Degree Days  
Heating Degree Days 0 1  
Month to date heating degree days 18  
Since 1 July heating degree days 2685  
Cooling Degree Days 16 4  
Month to date cooling degree days 33  
Year to date cooling degree days 103  
Growing Degree Days 30 (Base 50)    
Moisture  
Dew Point 60 °F    
Average Humidity 57    
Maximum Humidity 85    
Minimum Humidity 16    
Precipitation  
Precipitation 0.00 in 0.14 in 1.17 in (1978)
Month to date precipitation 1.10  
Year to date precipitation 16.34  
Snow  
Snow 0.00 in - - ()
Month to date snowfall  
Since 1 July snowfall  
Snow Depth -    
Sea Level Pressure  
Sea Level Pressure 30.11 in    
Wind  
Wind Speed 7 mph (SW)    
Max Wind Speed 15 mph    
Max Gust Speed 22 mph    
Visibility 10 miles    
Events      
T = Trace of Precipitation, MM = Missing Value Source: NWS Daily Summary

Daily Weather History Graph

Daily Weather History Graph

Search for Another Location

Airport:

Trip Planner

Search our weather history database for the weather conditions in past years. The results will help you decide how hot, cold, wet, or windy it might be!

Date:

Astronomy

May. 09, 2014 Rise Set
Actual Time 6:08 AM EDT 8:01 PM EDT
Civil Twilight 5:40 AM EDT 8:29 PM EDT
Nautical Twilight 5:06 AM EDT 9:03 PM EDT
Astronomical Twilight 4:30 AM EDT 9:39 PM EDT
Moon 3:07 PM EDT (5/9) 2:58 AM EDT (5/9)
Length of Visible Light 14h 48m
Length of Day
13h 52m
Waxing Gibbous, 73% of the Moon is Illuminated
May 9
Waxing Gibbous
May 14
Full
May 21
Last Quarter
May 28
New
Jun 5
First Quarter

Hourly Weather History & Observations

Time (EDT) Temp. Heat Index Dew Point Humidity Pressure Visibility Wind Dir Wind Speed Gust Speed Precip Events Conditions
12:15 AM 73.2 °F - 64.8 °F 75% 30.13 in 10.0 mi SW 8.1 mph - N/A   Clear
12:35 AM 73.2 °F - 64.9 °F 75% 30.13 in 10.0 mi SW 6.9 mph - N/A   Clear
12:55 AM 73.0 °F - 65.3 °F 77% 30.13 in 10.0 mi SW 6.9 mph - N/A   Clear
1:15 AM 73.0 °F - 65.3 °F 77% 30.13 in 10.0 mi SSW 3.5 mph - N/A   Clear
1:35 AM 73.0 °F - 66.2 °F 79% 30.13 in 10.0 mi SSW 3.5 mph - N/A   Clear
1:55 AM 73.0 °F - 66.4 °F 80% 30.12 in 10.0 mi SW 5.8 mph - N/A   Clear
2:15 AM 73.0 °F - 66.7 °F 81% 30.12 in 10.0 mi SW 5.8 mph - N/A   Clear
2:35 AM 73.0 °F - 67.1 °F 82% 30.12 in 10.0 mi SW 5.8 mph - N/A   Clear
2:55 AM 73.0 °F - 67.5 °F 83% 30.12 in 10.0 mi SW 5.8 mph - N/A   Clear
3:15 AM 73.0 °F - 67.5 °F 83% 30.11 in 10.0 mi SW 5.8 mph - N/A   Clear
3:35 AM 73.0 °F - 67.6 °F 83% 30.12 in 10.0 mi SW 6.9 mph - N/A   Clear
3:55 AM 71.2 °F - 66.0 °F 84% 30.11 in 10.0 mi SW 8.1 mph - N/A   Clear
4:15 AM 70.7 °F - 65.5 °F 83% 30.12 in 10.0 mi SW 5.8 mph - N/A   Clear
4:35 AM 70.7 °F - 65.5 °F 83% 30.12 in 10.0 mi SW 6.9 mph - N/A   Clear
4:55 AM 70.7 °F - 65.5 °F 83% 30.12 in 10.0 mi SW 5.8 mph - N/A   Clear
5:15 AM 68.9 °F - 64.2 °F 85% 30.12 in 10.0 mi SSW 4.6 mph - N/A   Clear
5:35 AM 68.0 °F - 63.3 °F 85% 30.12 in 10.0 mi SW 6.9 mph - N/A   Clear
5:55 AM 68.0 °F - 63.5 °F 85% 30.13 in 10.0 mi SW 4.6 mph - N/A   Clear
6:35 AM 68.0 °F - 63.5 °F 85% 30.14 in 10.0 mi SW 5.8 mph - N/A   Clear
6:55 AM 68.0 °F - 63.5 °F 85% 30.15 in 10.0 mi SW 4.6 mph - N/A   Clear
7:15 AM 68.0 °F - 63.0 °F 84% 30.15 in 10.0 mi SW 6.9 mph - N/A   Clear
7:35 AM 70.7 °F - 64.9 °F 82% 30.16 in 10.0 mi SW 6.9 mph - N/A   Clear
7:55 AM 73.0 °F - 66.6 °F 80% 30.16 in 10.0 mi WSW 9.2 mph - N/A   Clear
8:15 AM 73.0 °F - 65.8 °F 78% 30.16 in 10.0 mi WSW 10.4 mph - N/A   Clear
8:35 AM 73.0 °F - 63.7 °F 72% 30.16 in 10.0 mi WSW 9.2 mph - N/A   Clear
8:55 AM 76.8 °F - 65.3 °F 67% 30.16 in 10.0 mi WSW 8.1 mph - N/A   Clear
9:15 AM 78.1 °F - 64.2 °F 62% 30.16 in 10.0 mi WSW 10.4 mph - N/A   Clear
9:35 AM 78.1 °F - 63.3 °F 60% 30.16 in 10.0 mi WSW 9.2 mph - N/A   Clear
9:55 AM 80.1 °F 81.7 °F 63.9 °F 58% 30.16 in 10.0 mi West 10.4 mph - N/A   Clear
10:15 AM 80.8 °F 82.0 °F 63.0 °F 54% 30.16 in 10.0 mi WSW 9.2 mph - N/A   Clear
10:35 AM 80.8 °F 81.8 °F 61.9 °F 52% 30.16 in 10.0 mi WSW 11.5 mph - N/A   Clear
10:55 AM 83.3 °F 84.3 °F 63.1 °F 50% 30.16 in 10.0 mi WSW 11.5 mph 18.4 mph N/A   Clear
11:15 AM 83.8 °F 84.3 °F 61.7 °F 47% 30.16 in 10.0 mi WSW 9.2 mph - N/A   Clear
11:35 AM 84.6 °F 84.8 °F 61.0 °F 45% 30.16 in 10.0 mi WSW 12.7 mph - N/A   Clear
11:55 AM 86.0 °F 86.1 °F 61.3 °F 43% 30.15 in 10.0 mi SW 10.4 mph - N/A   Clear
12:15 PM 86.5 °F 86.1 °F 59.9 °F 40% 30.15 in 10.0 mi WSW 10.4 mph - N/A   Clear
12:35 PM 87.3 °F 86.7 °F 59.7 °F 39% 30.14 in 10.0 mi WSW 8.1 mph - N/A   Clear
12:55 PM 88.5 °F 87.1 °F 56.5 °F 34% 30.13 in 10.0 mi WSW 12.7 mph 17.3 mph N/A   Clear
1:15 PM 88.5 °F 87.3 °F 57.4 °F 35% 30.12 in 10.0 mi WSW 10.4 mph - N/A   Clear
1:35 PM 90.9 °F 89.2 °F 56.5 °F 31% 30.12 in 10.0 mi WSW 10.4 mph - N/A   Clear
1:55 PM 91.9 °F 90.3 °F 56.1 °F 30% 30.11 in 10.0 mi WSW 11.5 mph 17.3 mph N/A   Clear
2:15 PM 93.4 °F 91.0 °F 53.2 °F 26% 30.11 in 10.0 mi WSW 6.9 mph - N/A   Clear
2:35 PM 93.4 °F - 48.7 °F 22% 30.10 in 10.0 mi WSW 15.0 mph 21.9 mph N/A   Clear
2:55 PM 93.4 °F - 49.1 °F 22% 30.09 in 10.0 mi WSW 10.4 mph 18.4 mph N/A   Clear
3:15 PM 93.4 °F - 49.5 °F 22% 30.08 in 10.0 mi SW 11.5 mph - N/A   Clear
3:35 PM 93.4 °F - 48.6 °F 22% 30.08 in 10.0 mi SW 9.2 mph 16.1 mph N/A   Clear
3:55 PM 91.2 °F - 48.6 °F 23% 30.06 in 10.0 mi WSW 9.2 mph - N/A   Clear
4:15 PM 93.4 °F - 48.6 °F 22% 30.06 in 10.0 mi West 9.2 mph - N/A   Clear
4:35 PM 93.4 °F - 46.8 °F 20% 30.05 in 10.0 mi SW 13.8 mph - N/A   Clear
4:55 PM 93.4 °F - 39.9 °F 16% 30.05 in 10.0 mi WSW 6.9 mph 17.3 mph N/A   Clear
5:15 PM 93.4 °F - 41.7 °F 17% 30.05 in 10.0 mi SW 12.7 mph - N/A   Clear
5:35 PM 91.2 °F - 41.5 °F 18% 30.05 in 10.0 mi SW 10.4 mph - N/A   Clear
5:55 PM 90.9 °F - 44.6 °F 20% 30.05 in 10.0 mi SW 6.9 mph - N/A   Clear
6:15 PM 88.7 °F - 41.2 °F 19% 30.04 in 10.0 mi SW 6.9 mph 11.5 mph N/A   Clear
6:35 PM 87.3 °F - 44.4 °F 22% 30.04 in 10.0 mi SW 8.1 mph - N/A   Clear
6:55 PM 86.4 °F - 43.5 °F 22% 30.04 in 10.0 mi SW 8.1 mph - N/A   Clear
7:15 PM 86.0 °F - 46.4 °F 25% 30.05 in 10.0 mi SSW 4.6 mph - N/A   Clear
7:35 PM 85.1 °F - 46.6 °F 26% 30.05 in 10.0 mi SSW 4.6 mph - N/A   Clear
7:55 PM 83.3 °F - 50.5 °F 32% 30.06 in 10.0 mi South 5.8 mph - N/A   Clear
8:15 PM 82.8 °F 83.3 °F 61.0 °F 48% 30.07 in 10.0 mi South 4.6 mph - N/A   Clear
8:35 PM 80.8 °F 83.1 °F 66.6 °F 62% 30.07 in 10.0 mi South 6.9 mph - N/A   Clear
8:55 PM 80.8 °F 84.2 °F 70.0 °F 70% 30.08 in 10.0 mi South 5.8 mph - N/A   Clear
9:15 PM 79.3 °F - 70.0 °F 73% 30.08 in 10.0 mi SSW 6.9 mph - N/A   Clear
9:35 PM 78.1 °F - 70.0 °F 76% 30.09 in 10.0 mi South 5.8 mph - N/A   Clear
9:55 PM 78.1 °F - 70.7 °F 78% 30.09 in 10.0 mi South 4.6 mph - N/A   Clear
10:15 PM 78.1 °F - 71.1 °F 79% 30.10 in 10.0 mi SSW 5.8 mph - N/A   Clear
10:35 PM 78.1 °F - 71.2 °F 79% 30.10 in 10.0 mi SSW 5.8 mph - N/A   Clear
10:55 PM 78.1 °F - 70.9 °F 78% 30.11 in 10.0 mi SSW 5.8 mph - N/A   Clear
11:15 PM 77.2 °F - 70.3 °F 79% 30.11 in 10.0 mi SSW 4.6 mph - N/A   Clear
11:35 PM 75.6 °F - 68.5 °F 79% 30.11 in 10.0 mi SSW 4.6 mph - N/A   Clear
11:55 PM 74.5 °F - 67.5 °F 79% 30.11 in 10.0 mi SSW 9.2 mph - N/A   Clear